Preview of NWS' New Version of Forecast
This preview is not operational and should not be used for support decisions.
Latest weather observations around

Norwood, Norwood Memorial Airport (KOWD)

Using International System of Units (Switch to English Units)
Date/ Time (EST) Wind (kph) Vis. (km) Weather Sky Cond. Temp (°C) Rel. Humidity Wind Chill (°C) Heat Index (°C) Pressure Precip. (cm)
Air Dwpt 6 hour Altimeter (hPa) Sea level (hPa) 1 hr 3 hr 6 hr
Max Min
Feb 17 14:53 8 16.09 Clear CLR 4 -14     25% 3   1019 1018.9      
Feb 17 13:53 SW 5 16.09 Clear CLR 3 -14     27% 2   1019 1019      
Feb 17 12:53 Calm 16.09 Clear CLR 2 -13     32%     1018.3 1018.4      
Feb 17 11:53 5 16.09 Clear CLR 2 -14     30% 0   1019.7 1019.6      
Feb 17 10:53 N 9 16.09 Clear CLR 1 -13     35% -2   1020.7 1020.7      
Feb 17 09:53 WNW 15 16.09 Clear CLR -1 -13     39% -5   1020.7 1020.8      
Feb 17 08:53 NW 18 16.09 Clear CLR -2 -12     45% -7   1020.7 1020.7      
Feb 17 07:53 NNW 9 16.09 Clear CLR -3 -12     50% -7   1019.7 1019.8      
Feb 17 06:53 Calm 16.09 Clear CLR -7 -11     74%     1019 1019.1      
Feb 17 05:53 NNW 5 16.09 Clear CLR -5 -12     57% -7   1018.6 1018.8      
Feb 17 04:53 NNW 5 16.09 Clear CLR -4 -13     52% -7   1017.6 1017.7      
Feb 17 03:53 Calm 16.09 Clear CLR -3 -13     48%     1017.3 1017.4      
Feb 17 02:53 N 15 16.09 Clear CLR -3 -13     46% -8   1016.9 1017.1      
Feb 17 01:53 11 16.09 Clear CLR -2 -12     46% -6   1016.9 1016.9      
Feb 17 00:53 NW 21 16.09 Clear   -1 -11     47% -7   1016.3 1016.1      
Feb 16 23:53 NW 17 16.09 Clear CLR -1 -9     51% -5   1015.2 1015.2      
Feb 16 22:53 W 5 16.09 Clear CLR -2 -8     65% -4   1014.6 1014.5      
Feb 16 21:53 W 8 16.09 Clear CLR 0 -8     56% -3   1014.2 1014.1      
Feb 16 20:53 NW 8 16.09 Clear CLR 1 -8     53% -2   1013.2 1013.4      
Feb 16 19:53 W 11 16.09 Clear CLR 1 -7     54% -2   1012.5 1012.5      
Feb 16 18:53 NW 11 16.09 Clear CLR 2 -7     50% -1   1011.9 1012      
Feb 16 17:53 WNW 11 16.09 Clear CLR 3 -7     46% 0   1010.8 1010.7      
Feb 16 16:53 WNW 17 16.09 Clear CLR 5 -8     39% 2   1009.8 1009.7      
Feb 16 15:53 W 13 16.09 Clear CLR 6 -8     36% 3   1008.8 1008.8      
Feb 16 14:53 W 15 16.09 Clear CLR 7 -7     36% 4   1008.1 1008.1      
Feb 16 13:53 NW 17 16.09 Clear CLR 7 -7     37% 4   1007.8 1007.8      
Feb 16 12:53 W 18 16.09 Clear CLR 6 -7     39% 3   1007.8 1007.7      
Feb 16 11:53 WNW 17 16.09 Clear CLR 6 -7     39% 3   1008.1 1008.1      
Feb 16 10:53 W 15 16.09 Clear CLR 4 -8     41% 1   1008.8 1008.8      
Feb 16 09:53 WNW 22 16.09 Clear CLR 4 -8     42% -1   1008.8 1008.8      
Feb 16 08:53 W 21 16.09 Clear CLR 2 -8     48% -3   1008.8 1008.9      
Feb 16 07:53 W 8 16.09 Clear CLR 2 -7     50% 0   1008.5 1008.3      
Feb 16 06:53 WNW 17 16.09 Mostly Cloudy BKN100 2 -8     48% -2   1007.5 1007.2      
Feb 16 05:53 W 15 16.09 Clear CLR 3 -7     48% -1   1007.1 1007      
Feb 16 04:53 W 13 16.09 Clear CLR 4 -7     44% 1   1006.4 1006.3      
Feb 16 03:53 WNW 13 16.09 Mostly Clear FEW085 4 -5     50% 1   1005.8 1005.7      
Feb 16 02:53 NW 13 16.09 Mostly Cloudy BKN080 6 -4     50% 3   1005.1 1005.1      
Feb 16 01:53 WNW 9 16.09 Mostly Clear FEW090 6 -2     55% 4   1004.8 1004.7      
Feb 16 01:01 NW 15 16.09 Cloudy SCT029 BKN033 OVC110 8 -1     53% 5   1004.8        
Feb 16 00:53 NW 18 16.09 Cloudy BKN028 OVC033 8 -1     55% 5   1004.8 1004.5      
Feb 15 23:53 WNW 17 16.09 Cloudy SCT018 BKN025 OVC055 10 6     74%     1003.7 1003.7      
Feb 15 23:49 NW 11 16.09 Cloudy FEW018 BKN025 OVC055 9 6     81% 7   1003.7        
Feb 15 22:53 SSW 11 16.09 Cloudy SCT055 OVC070 11 7     77%     1002.7 1002.8      
Feb 15 21:53 SSW 9 16.09 Cloudy OVC095 11 7     77%     1002.7 1002.6      
Feb 15 20:53 S 13 16.09 Cloudy BKN090 OVC120 11 8     80%     1003.1 1002.8      
Feb 15 19:53 S 15 16.09 Cloudy BKN085 OVC110 12 8     77%     1003.4 1003.3      
Feb 15 18:53 SSW 21 16.09 Cloudy BKN020 OVC090 12 8     77%     1004.1 1003.9     0
Feb 15 17:53 S 21 16.09 Cloudy BKN015 OVC019 12 8     77%     1003.7 1003.5      
Feb 15 16:53 S 15 16.09 Cloudy BKN010 OVC023 12 8     80%     1003.7 1003.7      
Feb 15 15:53 S 22 16.09 Cloudy BKN010 BKN049 OVC120 12 8     80%     1004.4 1004.2   0  
Feb 15 14:53 S 21 16.09 Mostly Cloudy BKN010 BKN075 BKN120 12 8     80%     1004.4 1004.5 0    
Feb 15 13:53 SSE 26 11.27 Light Rain SCT038 BKN070 OVC100 11        %     1005.4 1005.6 0    
Feb 15 13:40 SSE 28 3.22 Light Rain FEW017 BKN047 OVC060 11        %     1005.4   0    
Feb 15 12:53 S 13 16.09 Cloudy FEW022 BKN060 OVC075 11        %     1007.5 1007.5 0   0
Feb 15 11:53 SSE 13 16.09 Cloudy OVC020 10        %     1008.8 1008.9 0    
Feb 15 10:53 SE 11 11.27 Light Rain BKN022 OVC032 8 4     76% 6   1011.2 1011.2 0    
Feb 15 10:26 SSE 15 16.09 Light Rain BKN022 BKN028 OVC047 8 3     71% 6   1011.9   0    
Feb 15 09:53 SSE 22 16.09 Mostly Cloudy FEW037 SCT050 BKN060 8 2     65% 5   1012.2 1012.1      
Feb 15 08:53 11 16.09 Mostly Cloudy BKN100 6 -1     62% 3   1013.2 1013.3      
Feb 15 07:53 SE 8 16.09 Clear CLR 3 -2     67% 1   1014.2 1014.3      
Feb 15 06:53 E 8 16.09 Mostly Clear FEW042 FEW050 2 -2     75% 0   1014.9 1014.8      
Feb 15 05:53 Calm 16.09 Mostly Cloudy BKN050 0 -3     81%     1015.9 1015.8      
Feb 15 04:53 E 8 16.09 Clear CLR 1 -3     75% -1   1016.3 1016.3      
Feb 15 03:53 Calm 16.09 Clear CLR -2 -4     82%     1017.6 1017.5      
Feb 15 02:53 Calm 16.09 Clear CLR -2 -6     78%     1018.3 1018.3      
Feb 15 01:53 Calm 16.09 Mostly Clear FEW120 -2 -6     78%     1018.6 1018.6      
Feb 15 00:53 Calm 16.09 Clear CLR -2 -6     78%     1018.3 1018.2      
Feb 14 23:53 Calm 16.09 Clear CLR -2 -6     78%     1018.3 1018.3      
Feb 14 22:53 Calm 16.09 Clear CLR -2 -6     78%     1018 1018.1      
Feb 14 21:53 Calm 16.09 Clear CLR -2 -6     75%     1018.6 1018.7      
Feb 14 20:53 Calm 16.09 Clear CLR -2 -6     72%     1018.6 1018.7      
Feb 14 19:53 Calm 16.09 Clear CLR -2 -7     71%     1018.3 1018.3      
Feb 14 18:53 E 5 16.09 Clear CLR -1 -6     69% -3   1018.3 1018.2      
Feb 14 17:53 NNW 8 16.09 Clear CLR 2 -8     48% 0   1016.9 1016.8      
Feb 14 16:53 W 15 16.09 Clear CLR 4 -8     42% 0   1016.3 1016.4      
Feb 14 15:53 W 21 16.09 Clear CLR 4 -7     43% 0   1015.6 1015.6      
Feb 14 14:53 W 26 16.09 Clear CLR 4 -7     43% 0   1014.9 1015.1      
May 15 06:53 S 9 4.83 Fog/Mist OVC003 15 14     93%     1010.8 1010.9      
May 15 04:53 S 8 14.48 Clear   14 12     89%     1011.2 1011      
May 14 23:53 S 8 16.09 Clear CLR 14 12     87%     1012.5 1012.6      
May 14 13:53 SSW 15 16.09 Partly Cloudy SCT035 21 12     55%     1013.6 1013.5      
May 14 06:19 SSE 8 16.09 Cloudy BKN007 OVC030 11 9     89%     1016.6        
May 13 23:53 SSE 8 16.09 Clear CLR 10 8     89% 9   1018.6 1018.4      
May 13 13:53 NNE 9 16.09 Mostly Cloudy BKN021 BKN026 16 9     67%     1022 1022      
May 13 00:53 NNE 8 9.66 Fog/Mist OVC006 11 9     89%     1019.7 1019.6      
May 12 14:15 N 5 16.09 Cloudy BKN009 OVC013 12 10     89%     1020.7        
May 11 20:53 SSE 5 16.09 Clear CLR 12 0     43%     1018.3 1018.2      
May 11 12:53   16.09 Clear CLR 20 2     30%     1014.6 1014.5      
Jun 12 05:53 Calm 16.09 Clear CLR 21 18     87%     1014.6 1014.5      
Jun 10 22:53 SSW 11 16.09 Clear   23 13     55%   23 1015.6 1015.5      
Jun 10 15:53 S 21 16.09 Clear CLR 28 13     38%   28 1012.9 1012.8      
Jun 08 08:53 Calm 16.09 Clear CLR 19 13     68%     1017.3 1017.2      
Jun 07 22:53 Calm 16.09 Clear CLR 11 10     93%     1016.6 1016.5      
Jun 07 11:53 NE 13 16.09 Cloudy OVC075 18 10     60%     1014.6 1014.5      
Jun 06 13:35 NNE 22 9.66 Light Rain and Fog/Mist SCT009 SCT018 OVC039 9 8     93% 6   1010.2   0    
Jun 06 11:53 NE 18 2.01 Light Rain and Fog/Mist BKN007 OVC014 10 9     93% 8   1010.5 1010.3 0    
Notice The following observation data may not be complete
Jun 06 05:05   2.82 Fog/Mist OVC006          %              
Jun 05 21:53 ENE 15 4.02 Light Rain and Fog/Mist OVC006 12 12     97%     1010.5 1010.3 0    
Jun 05 18:53 ENE 13 2.82 Fog/Mist OVC006 13 12     93%     1010.2 1009.9